Flag for U.S.A. Weather past 2 weeks in Leesburg, Virginia, U.S.A.

Now
28 °F

Clear.


Feels Like: 16 °F
Forecast: 28 / 38 °F
Wind: 17 mph from Northwest

Location: Leesburg / Godfrey

Current Time: Mar 28, 2015 at 8:29:01 AM

Latest Report: Mar 28, 2015 at 7:55 AM


Visibility: 10 mi

Pressure: 30.00 "Hg

Humidity: 51%

Dew point: 12 °F

Location of LeesburgLocation

Historic Weather in Leesburg — Graph

°F

Leesburg temperature yesterday

Maximum temperature yesterday: 50 °F (at 12:15 AM)
Minimum temperature yesterday: 37 °F (at 11:55 PM)
Average temperature yesterday: 44 °F

Past Weeks' High & Low Weather Summary

 TemperatureHumidityPressure
High75 °F (Mar 26, 4:15 PM)100% (Mar 14, 1:55 AM)30.64 "Hg (Mar 14, 1:55 AM)
Low28 °F (Mar 25, 2:55 AM)24% (Mar 22, 4:55 PM)29.59 "Hg (Mar 26, 5:55 PM)
Average45 °F65%30.08 "Hg
* Reported Mar 13 7:15 AM — Mar 28 7:15 AM, Leesburg, Weather by CustomWeather, © 2015

Note: Actual official high and low records may vary slightly from our data, if they occured in-between our weather recording intervals... More about our weather records

Advertising

Leesburg weather history for previous 24 hours

 ConditionsComfort  
Time TempWeatherWind HumidityBarometerVisibility
7:15 AM
Sat, Mar 28
28 °FClear.14 mph55%29.98 "Hg10 mi
6:55 AM28 °FClear.16 mph55%29.96 "Hg10 mi
6:35 AM28 °FClear.20 mph64%29.95 "Hg10 mi
6:15 AM30 °FClear.18 mph64%29.95 "Hg10 mi
5:55 AM30 °FClear.14 mph64%29.94 "Hg10 mi
5:35 AM30 °FClear.16 mph64%29.93 "Hg10 mi
5:15 AM32 °FClear.13 mph64%29.92 "Hg10 mi
4:55 AM32 °FClear.17 mph69%29.91 "Hg10 mi
4:35 AM32 °FPassing clouds.15 mph69%29.90 "Hg10 mi
4:15 AM32 °FPassing clouds.12 mph69%29.90 "Hg10 mi
3:55 AM32 °FPassing clouds.14 mph69%29.89 "Hg10 mi
3:15 AM32 °FPartly cloudy.10 mph69%29.90 "Hg10 mi
2:55 AM32 °FPassing clouds.14 mph69%29.90 "Hg10 mi
2:35 AM34 °FClear.10 mph65%29.90 "Hg10 mi
2:15 AM34 °FClear.9 mph70%29.90 "Hg10 mi
1:55 AM34 °FClear.16 mph70%29.89 "Hg10 mi
1:35 AM36 °FClear.20 mph70%29.88 "Hg10 mi
1:15 AM36 °FClear.13 mph75%29.88 "Hg10 mi
12:55 AM36 °FClear.10 mph75%29.88 "Hg10 mi
12:35 AM36 °FClear.13 mph75%29.87 "Hg10 mi
11:55 PM
Fri, Mar 27
37 °FClear.15 mph70%29.86 "Hg10 mi
11:35 PM39 °FClear.13 mph65%29.86 "Hg10 mi
11:15 PM41 °FClear.12 mph61%29.86 "Hg10 mi
10:55 PM41 °FClear.12 mph61%29.85 "Hg10 mi
10:35 PM41 °FPassing clouds.13 mph61%29.85 "Hg10 mi
10:15 PM41 °FPassing clouds.16 mph57%29.86 "Hg10 mi
9:55 PM43 °FOvercast.14 mph57%29.85 "Hg10 mi
9:35 PM43 °FOvercast.13 mph57%29.85 "Hg10 mi
9:15 PM43 °FOvercast.15 mph57%29.85 "Hg10 mi
8:55 PM43 °FOvercast.15 mph61%29.84 "Hg10 mi
8:15 PM45 °FOvercast.12 mph57%29.83 "Hg10 mi
7:55 PM45 °FOvercast.13 mph57%29.82 "Hg10 mi
7:35 PM45 °FOvercast.14 mph57%29.81 "Hg10 mi
7:15 PM46 °FOvercast.12 mph53%29.81 "Hg10 mi
6:55 PM46 °FOvercast.13 mph53%29.80 "Hg10 mi
6:35 PM46 °FPartly sunny.12 mph53%29.79 "Hg10 mi
6:15 PM46 °FPartly sunny.10 mph53%29.78 "Hg10 mi
5:55 PM46 °FScattered clouds.12 mph53%29.77 "Hg10 mi
5:15 PM46 °FBroken clouds.7 mph53%29.78 "Hg10 mi
4:55 PM46 °FBroken clouds.12 mph57%29.77 "Hg10 mi
4:35 PM50 °FPartly sunny.14 mph50%29.77 "Hg10 mi
4:15 PM48 °FOvercast.13 mph54%29.77 "Hg10 mi
3:55 PM46 °FPartly sunny.12 mph57%29.77 "Hg10 mi
3:35 PM46 °FPartly sunny.14 mph57%29.77 "Hg10 mi
3:15 PM48 °FPartly sunny.9 mph54%29.78 "Hg10 mi
2:55 PM46 °FPartly sunny.7 mph57%29.79 "Hg10 mi
2:35 PM48 °FOvercast.9 mph54%29.80 "Hg10 mi
2:15 PM46 °FPartly sunny.12 mph57%29.80 "Hg10 mi
1:55 PM46 °FOvercast.10 mph57%29.81 "Hg10 mi
1:35 PM46 °FOvercast.9 mph57%29.81 "Hg10 mi
1:15 PM45 °FMore clouds than sun.9 mph66%29.82 "Hg10 mi
12:55 PM45 °FMore clouds than sun.12 mph61%29.82 "Hg10 mi
12:35 PM45 °FBroken clouds.10 mph66%29.81 "Hg10 mi
12:15 PM45 °FScattered clouds.8 mph66%29.84 "Hg10 mi
11:55 AM43 °FBroken clouds.8 mph71%29.83 "Hg10 mi
11:35 AM43 °FMore clouds than sun.9 mph76%29.86 "Hg10 mi
11:15 AM43 °FMostly cloudy.9 mph71%29.83 "Hg10 mi
10:55 AM43 °FOvercast.12 mph76%29.85 "Hg10 mi
10:35 AM43 °FMostly cloudy.9 mph76%29.84 "Hg10 mi
10:15 AM43 °FOvercast.7 mph76%29.83 "Hg10 mi
9:55 AM43 °FOvercast.7 mph76%29.84 "Hg10 mi
9:35 AM43 °FMore clouds than sun.9 mph76%29.83 "Hg10 mi
9:15 AM43 °FCloudy.8 mph81%29.82 "Hg10 mi
8:55 AM43 °FOvercast.8 mph81%29.82 "Hg10 mi
8:35 AM43 °FMostly cloudy.8 mph87%29.83 "Hg10 mi
8:15 AM43 °FMore clouds than sun.6 mph87%29.81 "Hg10 mi
Weather by CustomWeather, © 2015

See weather overviewHow to use our weather pages